www.pogodaiklimat.ru

Погода и климат >> Архив погоды >> Россия >> Ростовская область >> Аэропорт Платов


ПОГОДА в Аэропорту Платов

  • Прогноз погоды в Аэропорту Платов
  • Монитор погоды в Аэропорту Платов

АРХИВ ПОГОДЫ в Аэропорту Платов

Время (UTC), дата Ветер
(напр.,м/с)
 
Видим.   Явления Облачность Т
(С)
Тd
(С)
f
(%)
Тe
(С)
Тes
(С)
Комфортность P
(гПа)
Po
(гПа)
Тmin
(С)
Tmax
(С)
R
(мм)
R24
(мм)
S
(см)
15 18.06 СВ 4
{14}
10 км 5/0
[Ac trans Ci fib]
+30.3 +11.0 30 +30 +32 жарко 1011.3 1000.5 +31.5
18 18.06 СВ 4
{14}
10 км ясно +24.5 +12.2 46 +26 +26 жарко 1012.4 1001.4
21 18.06 СЗ 2 10 км ясно +19.2 +12.4 65 +21 +21 комфорт 1012.6 1001.4
00 19.06 З 1 10 км ясно +17.3 +12.4 73 +18 +18 1012.4 1001.1
03 19.06 СЗ 2 10 км ясно +18.4 +13.1 71 +19 +21 1012.2 1001.0 +15.5
06 19.06 В 2 10 км ясно +28.9 +13.7 39 +31 +41 жарко 1012.1 1001.3
09 19.06 В 4 10 км 3/3 1000 м
[Cu hum]
+31.5 +13.0 32 +32 +41 жарко 1011.7 1001.0
12 19.06 В 3 10 км 6/3 1000 м
[Cu med, cong Ac trans Ci fib]
+32.1 +12.4 30 +33 +39 жарко 1010.5 999.8
15 19.06 СВ 8-11
{14}
10 км 8/3 1500 м
[Cb calv Ac trans Ci fib]
+27.0 +15.5 49 +30 +30 душно 1010.7 999.8 +33.8
18 19.06 СВ 2
{14}
10 км 8/1 600 м
[Cb calv Ac trans Ci fib]
+24.8 +15.6 57 +28 +28 жарко 1011.3 1000.3
21 19.06 С 1 10 км 5/0
[Ac trans Ci fib]
+20.9 +15.3 70 +25 +25 комфорт 1011.9 1000.8
00 20.06 С 3 10 км 4/0
[Ac trans Ci fib]
+21.0 +14.6 67 +24 +24 комфорт 1011.7 1000.6
03 20.06 СВ 4 10 км 4/0
[Ac trans Ci fib]
+22.8 +15.9 65 +27 +28 душно 1012.5 1001.5 +17.0
06 20.06 В 5 10 км 1/0
[Ac trans]
+27.8 +15.9 48 +31 +36 душно 1012.7 1001.8
09 20.06 В 7-11
{11}
10 км 3/3 1000 м
[Cu hum]
+31.4 +13.3 33 +32 +36 жарко 1011.6 1000.9
12 20.06 СВ 7-13
{14}
10 км 4/3 1000 м
[Cu hum Ac trans]
+33.3 +10.3 24 +33 +35 жарко 1011.0 1000.3
15 20.06 СВ 6
{13}
10 км 3/0
[Ac trans]
+32.5 +9.5 24 +32 +33 жарко 1010.5 999.8 +33.9
18 20.06 СВ 5
{13}
10 км 1/0
[Ac trans]
+27.3 +9.9 34 +28 +28 жарко 1011.6 1000.7
21 20.06 СВ 6 10 км 4/0
[Ac trans]
+24.7 +10.2 40 +26 +26 жарко 1012.2 1001.2
00 21.06 СВ 6 10 км 4/0
[Ac trans]
+23.1 +10.5 45 +25 +25 комфорт 1013.0 1001.9
03 21.06 СВ 6 10 км 4/0
[Ac trans]
+24.3 +11.6 45 +26 +26 жарко 1013.6 1002.6 +22.5
06 21.06 В 7-10
{11}
10 км 1/0
[Ac trans]
+29.5 +12.2 34 +30 +33 жарко 1014.2 1003.4
09 21.06 В 7-11
{12}
10 км 1/1 1000 м
[Cu hum]
+33.2 +9.9 24 +32 +37 жарко 1013.7 1003.0
12 21.06 В 5
{13}
10 км 4/3 1000 м
[Cu hum Ac trans]
+34.3 +9.8 22 +33 +38 жарко 1013.1 1002.4
15 21.06 СВ 6
{11}
10 км 4/1 1500 м
[Cb calv Ac trans Ci fib]
+33.8 +9.1 22 +33 +33 жарко 1012.7 1002.0 +35.1
18 21.06 СВ 5
{11}
10 км 4/0
[Ac trans Ci fib]
+27.7 +9.6 32 +28 +28 жарко 1013.8 1002.9
21 21.06 СВ 6 10 км 3/0
[Ac trans Ci fib]
+25.6 +9.1 35 +26 +26 жарко 1014.1 1003.1
00 22.06 СВ 3 10 км 4/0
[Ac trans Ci fib]
+21.8 +9.3 45 +23 +23 комфорт 1014.6 1003.5
03 22.06 СВ 4 10 км 5/0
[Ci fib]
+23.0 +11.0 47 +25 +26 комфорт 1015.5 1004.4 +19.8
06 22.06 В 6 10 км 6/0
[Ci fib]
+30.7 +11.7 31 +31 +35 жарко 1015.5 1004.7
09 22.06 В 7-10
{14}
10 км 8/1 1500 м
[Cu hum Ac trans Ci]
+33.5 +7.9 21 +32 +35 жарко 1014.8 1004.1
12 22.06 В 7-12
{14}
10 км 8/1 1500 м
[Cu hum Ac trans Ci]
+34.3 +9.1 21 +33 +35 жарко 1014.1 1003.4
15 22.06 СВ 5 10 км 8/0
[Ac trans Ci]
+33.2 +9.4 23 +32 +33 жарко 1013.5 1002.8 +35.6
18 22.06 СВ 6
{12}
9000 м 8/1 1500 м
[Cb calv Ac trans Ci]
+30.4 +8.9 26 +30 +30 жарко 1013.4 1002.6
21 22.06 СВ 7
{11}
10 км 6/0
[Ac trans Ci fib]
+26.9 +8.0 30 +27 +27 жарко 1013.2 1002.3
00 23.06 В 7
{11}
10 км 9/0
[Ac trans Ci fib]
+26.5 +8.0 31 +26 +26 жарко 1013.7 1002.7
03 23.06 В 6 10 км 9/0
[Ac trans Ci fib]
+26.8 +7.7 30 +27 +27 жарко 1014.1 1003.2 +25.9
06 23.06 В 6
{11}
10 км 6/0
[Ac trans Ci fib]
+30.8 +10.7 29 +31 +34 жарко 1014.3 1003.5
09 23.06 В 7-12
{10}
10 км 8/3 1500 м
[Cu hum Ac trans Ci fib]
+36.1 +9.5 20 +35 +37 очень
жарко
1013.2 1002.6
12 23.06 В 7
{12}
10 км 8/3 1500 м
[Cu hum Ac trans Ci fib]
+37.4 +8.4 17 +35 +37 очень
жарко
1012.3 1001.7
15 23.06 В 7-10
{12}
10 км 8/1 1500 м
[Cb calv Ac trans Ci fib]
+35.6 +7.4 18 +34 +34 очень
жарко
1011.0 1000.4 +37.6
18 23.06 СВ 6
{12}
10 км 8/1 1500 м
[Cb calv Ac trans Ci fib]
+31.7 +7.1 22 +30 +30 жарко 1010.8 1000.1
21 23.06 ЮВ 3 10 км 8/1 1000 м
[Cb calv Ac trans Ci fib]
+28.6 +8.6 29 +28 +28 жарко 1010.8 1000.0
00 24.06 ЮЗ 4 10 км 8/1 1000 м
[Cb calv Ac trans Ci fib]
+25.0 +17.2 62 +29 +29 душно 1011.7 1000.8
03 24.06 ЮЗ 2 10 км 9/3 1500 м
[Cb calv Ac trans Ci fib]
+24.9 +15.7 57 +28 +29 жарко 1013.0 1002.0 +23.7
06 24.06 ЮВ 3 10 км слаб. ливневой дождь 9/4 1500 м
[Cb calv Ac trans]
+23.5 +19.0 76 +28 +31 душно 1014.5 1003.5 +23.5
09 24.06 З 1 10 км {ливн. осадки} 9/3 1000 м
[Cb calv Ac trans]
+27.7 +17.2 53 +32 +39 очень
душно
1014.5 1003.6

 

Местоположение метеостанции Аэропорт Платов (Ростовская область, Россия): широта 47.49 долгота 39.92 высота над уровнем моря 84 м.

В архиве по умолчанию представлена погода в Аэропорту Платов за последнюю неделю. Архивные данные за месяц целиком и за предыдущие месяцы, начиная с января 2011 года, Вы можете получить, выбрав интересующий диапазон дат из раскрывающегося списка и нажав кнопку "Ввод!".


*Определитесь, кто Вы:
робот инопланетянин человек

Внимание! Время в таблицах - всемирное. Для получения местного времени необходимо прибавить поправку, которая равна 3 ч.

Смотрите также архив погоды в соседних городах и на ближайших метеорологических станциях:

Погода в Ростове-на-Дону (Ростовская область, Россия) (26 км)
Погода в Шахтах (Ростовская область, Россия) (35 км)
Погода в Семикаракорске (Ростовская область, Россия) (68 км)
Погода в Зерноград (Ростовская область, Россия) (77 км)
Погода в Матвеевом Кургане (Ростовская область, Россия) (79 км)
Погода в Таганроге (Ростовская область, Россия) (83 км)
Погода в Константиновске (Ростовская область, Россия) (89 км)
Погода в Каменск-Шахтинском (Ростовская область, Россия) (94 км)
Погода в Маргаритово (Ростовская область, Россия) (101 км)
Погода в Белой Калитве (Ростовская область, Россия) (106 км)

Пояснения к столбцам:

Ветер - указаны скорость ветра в м/с - средняя за 10 мин, порывы в срок и между сроками (в фигурных скобках) и направление, откуда дует ветер: С - северный, СВ - северо-восточный, В - восточный, ЮВ - юго-восточный, Ю - южный, ЮЗ - юго-западный, З - западный, СЗ - северо-западный.
Видимость - горизонтальная дальность видимости в метрах или километрах. При видимости от 1 до 10 км при отсутствии осадков обычно наблюдается дымка, при ухудшении видимости до 1 км и менее - туман. В сухую погоду видимость может ухудшаться дымом, пылью или мглою.
Явления - указаны атмосферные явления, наблюдавшиеся в срок или в последний час перед сроком; фигурными скобками обозначены явления, наблюдавшиеся между сроками (за 1-3 часа до срока); квадратными скобками обозначены град или гололедные отложения с указанием их диаметра в мм.
Облачность - указаны через наклонную черту общая и нижняя облачность в баллах и высота нижней границы облаков в метрах; квадратными скобками обозначены формы облаков: Ci - перистые, Cs - перисто-слоистые, Cc - перисто-кучевые, Ac - высококучевые, As - высокослоистые, Sc - слоисто-кучевые, Ns - слоисто-дождевые, Cu - кучевые, Cb - кучево-дождевые. Подробнее классификацию облаков см. в Атласе облаков (PDF).
T - Температура воздуха - температура, измеренная на высоте 2 м над землей.
Td - Температура точки росы - температура, при понижении до которой содержащийся в воздухе водяной пар достигнет насыщения.
f - Относительная влажность воздуха - влажноcть воздуха, измеренная на высоте 2 м над землей.
Te - Эффективная температура - температура, которую ощущает одетый по сезону человек в тени. Характеристика душности погоды. При расчете учитывается влияние влажности воздуха и скорости ветра на теплоощущения человека.
Tes - Эффективная температура на солнце - температура, которую ощущает человек, с поправкой на солнечный нагрев. Характеристика знойности погоды. Зависит от высоты солнца над горизонтом, облачности и скорости ветра. Ночью, в пасмурную погоду, а также при ветре 12 м/с и более поправка равна нулю.
P - Атмосферное давление - приведенное к уровню моря атмосферное давление.
Po - Атмосферное давление - измеренное на уровне метеостанции атмосферное давление.
Tmin - Минимальная температура - минимум температуры воздуха на высоте 2 м над землей.
Tmax - Максимальная температура - максимум температуры воздуха на высоте 2 м над землей.
R - Количество осадков - Количество выпавших осадков за период времени, мм. При наведении курсора мыши на число - период времени, за который выпало указанное количество осадков.
R24 - Количество осадков - Количество выпавших осадков за 24 часа, мм.
S - Снежный покров - Высота снежного покрова, см. При наведении курсора мыши на число - состояние снежного покрова и степень покрытия местности в баллах.